Showing default

NAVSPASUR ROD 1, 1515

Orbit data source: Space-Track

NAVSPASUR ROD 1, 1515 is a payload satellite owned by NRL (US) in LEO that was launched on Fri, 13 Aug 1965 UTC via a THOR ABLESTAR launch vehicle from the Air Force Western Test Range (AFWTR). Payload-class satellites include a variety of spacecraft equipped with specific instruments for various scientific and technological missions. These include communications satellites like Starlink; space stations such as the ISS; scientific satellites like the Hubble; Earth observation satellites from companies like Planet Labs, Umbra, and HawkEye 360; GPS; miniature CubeSats for education and research; and military/defense satellites.

Loading next visibility...
Identifier
1515, 1965-065G
Orbit
LEO
Country
Flag of USUS
Related business
Manufacturer
NRL
Mission
Spacecraft
Bus & Motor
LONG ROD, Unknown motor
Mass
3 kg wet, 3 kg dry
Launch date (UTC)
1965-08-13 (60 years ago)
Launch vehicle
THOR ABLESTAR
Launch site
Air Force Western Test Range (AFWTR)
Object type
Payload
Rocket body
Debris
Shape & HBR
Unknown
Radar Cross Section
Small (<0.1 m²)

Expand to show TLE details & history
Last TLE update: 6 hours ago

TLE from 6 hours ago
0 NAVSPASUR ROD 1
1 01515U 65065G   25304.26169339  .00000818  00000-0  12459-2 0  9997
2 01515  90.0112 213.8530 0057212 259.5769 224.2267 13.50763274949419
Epoch: 2025-10-31T06:16Z
TLE epoch observation values (Epoch: 2025-10-31T06:16:50.308Z)
Latitude
56.74388°
Longitude
-100.14828°
Altitude
1,109.682 km
Speed
7.288 km/s
True Right ascension
02h 15m 28s
True Declination
56° 35' 36"
Sunlit
Object was in full shadow at epoch
Visualization orbit readout
Latitude
Unknown
Longitude
Unknown
Altitude
Unknown
Speed
Unknown
Apparent Right ascension
Unknown
Apparent Declination
Unknown
Sunlit
N/A
Visualization observer readout
Local Sidereal Time
07:31:27
Azimuth
Unknown
Elevation
Unknown
Doppler factor
Unknown
Orbital elements
Apogee altitude
1,109.092 km
Perigee altitude
1,023.908 km
Semi-major axis
7,444.637 km
Eccentricity
0.00572
Inclination
90.0112°
RAAN
213.853°
Arg. of periapsis
259.5769°
True anomaly
223.77176°
Mean anomaly
224.2267°
Eccentric anomaly
223.99899°
Mean motion
3.37892 °/min
Orbital period
106.54 mins
BSTAR
0.0012459
Loading maneuver chart data...
Computing Atmospheric mass density...
Loading historical data...
Loading historical data...
Loading historical data...
Loading historical data...
Loading historical data...
Loading historical data...
Loading historical data...

Documentation

Showing up to 5 results
|